Back to catalog

USA 565

AliveMilitaryVLEO
NORAD 65711·PAYLOAD·🇺🇸 United States

Launched Sep 22, 2025 from Vandenberg Space Force Base

Loading…

Next Passes (next 24 hours)

TLE

StaleSource: Mike McCants

Epoch: Apr 30, 2026, 21:03 UTC

1 65711U 25213H   26120.87726372 0.00000000  00000-0  00000-0 0    09
2 65711  70.0100 145.8970 0002000  97.8483 262.1517 14.96712800    07

Track USA 565 in real time with AllMySat

Download on the App Store